Time,TemperatureF,DewpointF,PressureIn,WindDirection,WindDirectionDegrees,WindSpeedMPH,WindSpeedGustMPH,Humidity,HourlyPrecipIn,Conditions,Clouds,dailyrainin,SolarRadiationWatts/m^2,SoftwareType,DateUTC
2013-07-23 00:02:00,76.0,69.0,-100.00,SW,214,1.0,7.0,79,0.00,,,0.00,0.000000,,2013-07-23 05:02:00,
2013-07-23 00:11:00,76.0,69.0,-100.00,SW,214,1.0,7.0,79,0.00,,,0.00,0.000000,,2013-07-23 05:11:00,
2013-07-23 00:33:00,73.0,65.0,-100.00,SSW,206,2.0,5.0,77,0.00,,,0.00,0.000000,,2013-07-23 05:33:00,
2013-07-23 00:44:00,73.0,65.0,-100.00,SSW,206,2.0,5.0,77,0.00,,,0.00,0.000000,,2013-07-23 05:44:00,
2013-07-23 00:52:00,73.0,65.0,-100.00,SSW,206,2.0,5.0,77,0.00,,,0.00,0.000000,,2013-07-23 05:52:00,
2013-07-23 01:01:00,73.0,65.0,-100.00,SSW,206,2.0,5.0,77,0.00,,,0.00,0.000000,,2013-07-23 06:01:00,
2013-07-23 01:11:00,73.0,65.0,-100.00,SSW,206,2.0,5.0,77,0.00,,,0.00,0.000000,,2013-07-23 06:11:00,
2013-07-23 01:12:00,71.0,68.0,-100.00,WNW,294,1.0,4.0,89,0.00,,,0.00,0.000000,,2013-07-23 06:12:00,
2013-07-23 01:42:00,71.0,68.0,-100.00,WNW,294,1.0,4.0,89,0.00,,,0.00,0.000000,,2013-07-23 06:42:00,
2013-07-23 01:52:00,71.0,68.0,-100.00,WNW,294,1.0,4.0,89,0.00,,,0.00,0.000000,,2013-07-23 06:52:00,
2013-07-23 02:01:00,71.0,68.0,-100.00,WNW,294,1.0,4.0,89,0.00,,,0.00,0.000000,,2013-07-23 07:01:00,
2013-07-23 02:42:00,71.0,65.0,-100.00,North,356,4.0,10.0,82,0.00,,,0.00,0.000000,,2013-07-23 07:42:00,
2013-07-23 02:52:00,71.0,65.0,-100.00,North,356,4.0,10.0,82,0.00,,,0.00,0.000000,,2013-07-23 07:52:00,
2013-07-23 03:01:00,71.0,65.0,-100.00,North,356,4.0,10.0,82,0.00,,,0.00,0.000000,,2013-07-23 08:01:00,
2013-07-23 03:11:00,71.0,65.0,-100.00,North,356,4.0,10.0,82,0.00,,,0.00,0.000000,,2013-07-23 08:11:00,
2013-07-23 03:43:00,69.0,58.0,-100.00,NNW,332,4.0,15.0,68,0.00,,,0.00,0.000000,,2013-07-23 08:43:00,
2013-07-23 03:52:00,69.0,58.0,-100.00,NNW,332,4.0,15.0,68,0.00,,,0.00,0.000000,,2013-07-23 08:52:00,
2013-07-23 04:01:00,69.0,58.0,-100.00,NNW,332,4.0,15.0,68,0.00,,,0.00,0.000000,,2013-07-23 09:01:00,
2013-07-23 04:11:00,69.0,58.0,-100.00,NNW,332,4.0,15.0,68,0.00,,,0.00,0.000000,,2013-07-23 09:11:00,
2013-07-23 04:43:00,66.0,57.0,-100.00,NW,315,6.0,10.0,74,0.00,,,0.00,0.000000,,2013-07-23 09:43:00,
2013-07-23 04:53:00,66.0,57.0,-100.00,NW,315,6.0,10.0,74,0.00,,,0.00,0.000000,,2013-07-23 09:53:00,
2013-07-23 05:02:00,66.0,57.0,-100.00,NW,315,6.0,10.0,74,0.00,,,0.00,0.000000,,2013-07-23 10:02:00,
2013-07-23 05:11:00,66.0,57.0,-100.00,NW,315,6.0,10.0,74,0.00,,,0.00,0.000000,,2013-07-23 10:11:00,
2013-07-23 05:12:00,63.0,55.0,-100.00,NW,319,4.0,9.0,76,0.00,,,0.00,0.000000,,2013-07-23 10:12:00,
2013-07-23 05:44:00,63.0,55.0,-100.00,NW,319,4.0,9.0,76,0.00,,,0.00,0.000000,,2013-07-23 10:44:00,
2013-07-23 05:52:00,63.0,55.0,-100.00,NW,319,4.0,9.0,76,0.00,,,0.00,0.000000,,2013-07-23 10:52:00,
2013-07-23 06:02:00,63.0,55.0,-100.00,NW,319,4.0,9.0,76,0.00,,,0.00,0.000000,,2013-07-23 11:02:00,
2013-07-23 06:32:00,61.0,54.0,-100.00,NW,319,2.0,7.0,79,0.00,,,0.00,6.000000,,2013-07-23 11:32:00,
2013-07-23 06:43:00,61.0,54.0,-100.00,NW,319,2.0,7.0,79,0.00,,,0.00,6.000000,,2013-07-23 11:43:00,
2013-07-23 06:52:00,61.0,54.0,-100.00,NW,319,2.0,7.0,79,0.00,,,0.00,6.000000,,2013-07-23 11:52:00,
2013-07-23 07:02:00,61.0,54.0,-100.00,NW,319,2.0,7.0,79,0.00,,,0.00,6.000000,,2013-07-23 12:02:00,
2013-07-23 07:11:00,61.0,54.0,-100.00,NW,319,2.0,7.0,79,0.00,,,0.00,6.000000,,2013-07-23 12:11:00,
2013-07-23 07:43:00,64.0,54.0,-100.00,NNW,332,7.0,12.0,71,0.00,,,0.00,121.000000,,2013-07-23 12:43:00,
2013-07-23 08:01:00,64.0,54.0,-100.00,NNW,332,7.0,12.0,71,0.00,,,0.00,121.000000,,2013-07-23 13:01:00,
2013-07-23 08:11:00,64.0,54.0,-100.00,NNW,332,7.0,12.0,71,0.00,,,0.00,121.000000,,2013-07-23 13:11:00,
2013-07-23 08:12:00,66.0,53.0,-100.00,NNW,345,8.0,15.0,62,0.00,,,0.00,293.000000,,2013-07-23 13:12:00,
2013-07-23 08:43:00,66.0,53.0,-100.00,NNW,345,8.0,15.0,62,0.00,,,0.00,293.000000,,2013-07-23 13:43:00,
2013-07-23 08:52:00,66.0,53.0,-100.00,NNW,345,8.0,15.0,62,0.00,,,0.00,293.000000,,2013-07-23 13:52:00,
2013-07-23 09:02:00,66.0,53.0,-100.00,NNW,345,8.0,15.0,62,0.00,,,0.00,293.000000,,2013-07-23 14:02:00,
2013-07-23 09:33:00,68.0,52.0,-100.00,NW,320,8.0,15.0,56,0.00,,,0.00,460.000000,,2013-07-23 14:33:00,
2013-07-23 09:44:00,68.0,52.0,-100.00,NW,320,8.0,15.0,56,0.00,,,0.00,460.000000,,2013-07-23 14:44:00,
2013-07-23 09:53:00,68.0,52.0,-100.00,NW,320,8.0,15.0,56,0.00,,,0.00,460.000000,,2013-07-23 14:53:00,
2013-07-23 10:03:00,68.0,52.0,-100.00,NW,320,8.0,15.0,56,0.00,,,0.00,460.000000,,2013-07-23 15:03:00,
2013-07-23 10:11:00,68.0,52.0,-100.00,NW,320,8.0,15.0,56,0.00,,,0.00,460.000000,,2013-07-23 15:11:00,
2013-07-23 10:12:00,68.0,50.0,-100.00,NNW,337,10.0,20.0,53,0.00,,,0.00,592.000000,,2013-07-23 15:12:00,
2013-07-23 10:43:00,68.0,50.0,-100.00,NNW,337,10.0,20.0,53,0.00,,,0.00,592.000000,,2013-07-23 15:43:00,
2013-07-23 10:52:00,68.0,50.0,-100.00,NNW,337,10.0,20.0,53,0.00,,,0.00,592.000000,,2013-07-23 15:52:00,
2013-07-23 11:01:00,68.0,50.0,-100.00,NNW,337,10.0,20.0,53,0.00,,,0.00,592.000000,,2013-07-23 16:01:00,
2013-07-23 11:43:00,69.0,51.0,-100.00,North,350,8.0,19.0,52,0.00,,,0.00,745.000000,,2013-07-23 16:43:00,
2013-07-23 11:52:00,69.0,51.0,-100.00,North,350,8.0,19.0,52,0.00,,,0.00,745.000000,,2013-07-23 16:52:00,
2013-07-23 12:02:00,69.0,51.0,-100.00,North,350,8.0,19.0,52,0.00,,,0.00,745.000000,,2013-07-23 17:02:00,
2013-07-23 12:11:00,69.0,51.0,-100.00,North,350,8.0,19.0,52,0.00,,,0.00,745.000000,,2013-07-23 17:11:00,
2013-07-23 12:12:00,70.0,50.0,-100.00,NNE,19,6.0,17.0,50,0.00,,,0.00,863.000000,,2013-07-23 17:12:00,
2013-07-23 12:42:00,70.0,50.0,-100.00,NNE,19,6.0,17.0,50,0.00,,,0.00,863.000000,,2013-07-23 17:42:00,
2013-07-23 12:56:00,70.0,50.0,-100.00,NNE,19,6.0,17.0,50,0.00,,,0.00,863.000000,,2013-07-23 17:56:00,
2013-07-23 13:04:00,70.0,50.0,-100.00,NNE,19,6.0,17.0,50,0.00,,,0.00,863.000000,,2013-07-23 18:04:00,
2013-07-23 13:12:00,70.0,50.0,-100.00,NNW,339,8.0,17.0,49,0.00,,,0.00,710.000000,,2013-07-23 18:12:00,
2013-07-23 13:49:00,70.0,50.0,-100.00,NNW,339,8.0,17.0,49,0.00,,,0.00,710.000000,,2013-07-23 18:49:00,
2013-07-23 13:57:00,70.0,50.0,-100.00,NNW,339,8.0,17.0,49,0.00,,,0.00,710.000000,,2013-07-23 18:57:00,
2013-07-23 14:03:00,70.0,50.0,-100.00,NNW,339,8.0,17.0,49,0.00,,,0.00,710.000000,,2013-07-23 19:03:00,
2013-07-23 14:12:00,70.0,49.0,-100.00,NNE,14,4.0,18.0,48,0.00,,,0.00,606.000000,,2013-07-23 19:12:00,
2013-07-23 14:55:00,70.0,49.0,-100.00,NNE,14,4.0,18.0,48,0.00,,,0.00,606.000000,,2013-07-23 19:55:00,
2013-07-23 15:59:00,72.0,49.0,-100.00,NNW,336,6.0,14.0,45,0.00,,,0.00,598.000000,,2013-07-23 20:59:00,
2013-07-23 16:12:00,73.0,52.0,-100.00,North,1,4.0,12.0,47,0.00,,,0.00,460.000000,,2013-07-23 21:12:00,
2013-07-23 16:48:00,73.0,52.0,-100.00,North,1,4.0,12.0,47,0.00,,,0.00,460.000000,,2013-07-23 21:48:00,
2013-07-23 16:57:00,73.0,52.0,-100.00,North,1,4.0,12.0,47,0.00,,,0.00,460.000000,,2013-07-23 21:57:00,
2013-07-23 17:05:00,73.0,52.0,-100.00,North,1,4.0,12.0,47,0.00,,,0.00,460.000000,,2013-07-23 22:05:00,
2013-07-23 17:12:00,73.0,50.0,-100.00,NNE,32,4.0,10.0,44,0.00,,,0.00,493.000000,,2013-07-23 22:12:00,
2013-07-23 17:36:00,73.0,50.0,-100.00,NNE,32,4.0,10.0,44,0.00,,,0.00,493.000000,,2013-07-23 22:36:00,
2013-07-23 17:47:00,73.0,50.0,-100.00,NNE,32,4.0,10.0,44,0.00,,,0.00,493.000000,,2013-07-23 22:47:00,
2013-07-23 18:00:00,73.0,50.0,-100.00,NNE,32,4.0,10.0,44,0.00,,,0.00,493.000000,,2013-07-23 23:00:00,
2013-07-23 18:05:00,73.0,50.0,-100.00,NNE,32,4.0,10.0,44,0.00,,,0.00,493.000000,,2013-07-23 23:05:00,
2013-07-23 18:12:00,70.0,49.0,-100.00,North,352,3.0,10.0,47,0.00,,,0.00,140.000000,,2013-07-23 23:12:00,
2013-07-23 18:37:00,70.0,49.0,-100.00,North,352,3.0,10.0,47,0.00,,,0.00,140.000000,,2013-07-23 23:37:00,
2013-07-23 18:46:00,70.0,49.0,-100.00,North,352,3.0,10.0,47,0.00,,,0.00,140.000000,,2013-07-23 23:46:00,
2013-07-23 18:59:00,70.0,49.0,-100.00,North,352,3.0,10.0,47,0.00,,,0.00,140.000000,,2013-07-23 23:59:00,
2013-07-23 19:08:00,70.0,49.0,-100.00,North,352,3.0,10.0,47,0.00,,,0.00,140.000000,,2013-07-24 00:08:00,
2013-07-23 19:12:00,71.0,50.0,-100.00,North,7,3.0,9.0,47,0.00,,,0.00,202.000000,,2013-07-24 00:12:00,
2013-07-23 19:50:00,71.0,50.0,-100.00,North,7,3.0,9.0,47,0.00,,,0.00,202.000000,,2013-07-24 00:50:00,
2013-07-23 19:58:00,71.0,50.0,-100.00,North,7,3.0,9.0,47,0.00,,,0.00,202.000000,,2013-07-24 00:58:00,
2013-07-23 20:04:00,71.0,50.0,-100.00,North,7,3.0,9.0,47,0.00,,,0.00,202.000000,,2013-07-24 01:04:00,
2013-07-23 20:12:00,66.0,49.0,-100.00,North,4,2.0,9.0,54,0.00,,,0.00,90.000000,,2013-07-24 01:12:00,
2013-07-23 20:35:00,66.0,49.0,-100.00,North,4,2.0,9.0,54,0.00,,,0.00,90.000000,,2013-07-24 01:35:00,
2013-07-23 20:47:00,66.0,49.0,-100.00,North,4,2.0,9.0,54,0.00,,,0.00,90.000000,,2013-07-24 01:47:00,
2013-07-23 21:01:00,66.0,49.0,-100.00,North,4,2.0,9.0,54,0.00,,,0.00,90.000000,,2013-07-24 02:01:00,
2013-07-23 21:12:00,61.0,51.0,-100.00,North,4,2.0,5.0,69,0.00,,,0.00,3.000000,,2013-07-24 02:12:00,
2013-07-23 21:40:00,61.0,51.0,-100.00,North,4,2.0,5.0,69,0.00,,,0.00,3.000000,,2013-07-24 02:40:00,
2013-07-23 21:48:00,61.0,51.0,-100.00,North,4,2.0,5.0,69,0.00,,,0.00,3.000000,,2013-07-24 02:48:00,
2013-07-23 22:04:00,61.0,51.0,-100.00,North,4,2.0,5.0,69,0.00,,,0.00,3.000000,,2013-07-24 03:04:00,
2013-07-23 22:39:00,59.0,50.0,-100.00,North,8,1.0,4.0,71,0.00,,,0.00,0.000000,,2013-07-24 03:39:00,
2013-07-23 22:46:00,59.0,50.0,-100.00,North,8,1.0,4.0,71,0.00,,,0.00,0.000000,,2013-07-24 03:46:00,
2013-07-23 22:57:00,59.0,50.0,-100.00,North,8,1.0,4.0,71,0.00,,,0.00,0.000000,,2013-07-24 03:57:00,
2013-07-23 23:01:00,59.0,50.0,-100.00,North,8,1.0,4.0,71,0.00,,,0.00,0.000000,,2013-07-24 04:01:00,
2013-07-23 23:11:00,59.0,50.0,-100.00,North,8,1.0,4.0,71,0.00,,,0.00,0.000000,,2013-07-24 04:11:00,
2013-07-23 23:32:00,58.0,47.0,-100.00,North,6,2.0,6.0,67,0.00,,,0.00,0.000000,,2013-07-24 04:32:00,
2013-07-23 23:43:00,58.0,47.0,-100.00,North,6,2.0,6.0,67,0.00,,,0.00,0.000000,,2013-07-24 04:43:00,
2013-07-23 23:53:00,58.0,47.0,-100.00,North,6,2.0,6.0,67,0.00,,,0.00,0.000000,,2013-07-24 04:53:00,